BEIDOU-3 M22

Last updated on Jan. 18, 2020, 4:39 a.m. UTC

1 44794U 19078B   20017.07452943 -.00000070  00000-0  10000-3 0  9999
2 44794  55.0008  20.9955 0005192 321.6770 111.7484  1.86233173  1013
UTC
Height (km)
Latitude
Longitude
Inclination
Orbital Period
UTC large
Height (km)
Speed (km/s)
/
Latitude / Longitude
Inclination (degrees)
Orbital Period (minutes)
Azimuth
Elevation
Range (km)
Doppler Factor
iOS Compass Heading
iOS Angle

Next 30 passes for location: Hong Kong

Rise time Rise Azimuth (degrees) Set time Set Azimuth (degrees) Duration Max altitude (degrees)

No matching passes for this satellites